Location: Unspecified
(0.0000°N, 0.0000°E)
Time: 14:33:03
(UTC+00:00)

nSIGHT-1 - Visible Passes

Search period start: 21 January 2018 00:00
Search period end: 31 January 2018 00:00
Orbit: 386 x 394 km, 51.6° (Epoch: 21 January)

Date Brightness Start Highest point End Pass type
(mag) Time Alt. Az. Time Alt. Az. Time Alt. Az.
21 Jan ? 05:28:09 10° NNW 05:31:16 51° NE 05:34:23 10° SE visible
22 Jan ? 04:33:52 15° NE 04:34:30 16° NE 04:36:31 10° E visible
23 Jan ? 05:12:26 28° WNW 05:13:40 45° SW 05:16:45 10° SSE visible
24 Jan ? 04:18:33 22° ESE 04:18:33 22° ESE 04:19:57 10° SE visible
25 Jan ? 04:56:59 14° SSW 04:56:59 14° SSW 04:58:06 10° SSW visible
